Cozumel, Mexico

2:22 AM EST on September 21, 2017 (GMT -0500)
Cozumel

Weather History for MMCZ - February, 2012

Change the Weather History Date:

Saturday, February 4, 2012

  Actual Average Record
Temperature  
Mean Temperature 70 °F -  
Max Temperature 77 °F 81 °F 89 °F (2017)
Min Temperature 64 °F 69 °F 60 °F (2013)
Cooling Degree Days 6    
Growing Degree Days 20 (Base 50)    
Moisture  
Dew Point 64 °F    
Average Humidity 82    
Maximum Humidity 94    
Minimum Humidity 65    
Precipitation  
Precipitation 0.80 in - - ()
Sea Level Pressure  
Sea Level Pressure 29.96 in    
Wind  
Wind Speed 3 mph ()    
Max Wind Speed 12 mph    
Max Gust Speed -    
Visibility 6.5 miles    
Events      
Averages and records for this station are not official NWS values.
T = Trace of Precipitation, MM = Missing Value Source: Averaged Metar Reports

Daily Weather History Graph

Daily Weather History Graph

Search for Another Location

Airport or City:

Trip Planner

Search our weather history database for the weather conditions in past years. The results will help you decide how hot, cold, wet, or windy it might be!

Date:

Astronomy

Feb. 04, 2012 Rise Set
Actual Time 6:23 AM CST 5:40 PM CST
Civil Twilight 6:00 AM CST 6:03 PM CST
Nautical Twilight 5:33 AM CST 6:29 PM CST
Astronomical Twilight 5:07 AM CST 6:56 PM CST
Moon 2:50 PM CST (2/4) 3:33 AM CST (2/4)
Length of Visible Light 12h 03m
Length of Day
11h 17m
Waxing Gibbous, 89% of the Moon is Illuminated
Feb 4
Waxing Gibbous
Feb 7
Full
Feb 14
Last Quarter
Feb 21
New
Feb 29
First Quarter

Hourly Weather History & Observations

Time (CST) Temp. Dew Point Humidity Pressure Visibility Wind Dir Wind Speed Gust Speed Precip Events Conditions
12:40 AM 66.2 °F 64.4 °F 94% 29.99 in 6.0 mi Calm Calm - N/A   Overcast
1:49 AM 66.2 °F 62.6 °F 88% 29.97 in 6.0 mi Calm Calm - N/A   Overcast
2:42 AM 64.4 °F 62.6 °F 94% 29.99 in 6.0 mi Calm Calm - N/A   Overcast
3:50 AM 64.4 °F 62.6 °F 94% 29.96 in 6.0 mi Calm Calm - N/A   Overcast
4:41 AM 66.2 °F 62.6 °F 88% 29.94 in 6.0 mi ESE 3.5 mph - N/A   Overcast
5:49 AM 66.2 °F 62.6 °F 88% 29.94 in 6.0 mi ESE 4.6 mph - N/A   Overcast
6:41 AM 66.2 °F 62.6 °F 88% 29.98 in 6.0 mi Calm Calm - N/A   Overcast
7:53 AM 68.0 °F 64.4 °F 88% 29.99 in 6.0 mi Calm Calm - N/A   Mostly Cloudy
8:50 AM 75.2 °F 66.2 °F 73% 30.02 in 7.0 mi ESE 5.8 mph - N/A   Mostly Cloudy
9:49 AM 73.4 °F 66.2 °F 78% 30.02 in 7.0 mi SE 4.6 mph - N/A   Overcast
10:41 AM 77.0 °F 66.2 °F 69% 29.99 in 7.0 mi ESE 11.5 mph - N/A   Mostly Cloudy
11:52 AM 75.2 °F 64.4 °F 69% 29.94 in 7.0 mi ESE 9.2 mph - N/A   Mostly Cloudy
12:43 PM 77.0 °F 64.4 °F 65% 29.94 in 7.0 mi SE 11.5 mph - N/A   Mostly Cloudy
1:47 PM 75.2 °F 66.2 °F 73% 29.92 in 7.0 mi ESE 9.2 mph - N/A   Mostly Cloudy
2:52 PM 75.2 °F 64.4 °F 69% 29.94 in 7.0 mi ESE 10.4 mph - N/A   Mostly Cloudy
3:42 PM 73.4 °F 64.4 °F 73% 29.90 in 7.0 mi ESE 8.1 mph - N/A   Mostly Cloudy
4:47 PM 73.4 °F 64.4 °F 73% 29.91 in 7.0 mi East 5.8 mph - N/A   Overcast
5:45 PM 68.0 °F 64.4 °F 88% 29.90 in 7.0 mi ENE 3.5 mph - N/A   Mostly Cloudy
6:40 PM 68.0 °F 64.4 °F 88% 29.94 in 7.0 mi East 3.5 mph - N/A   Mostly Cloudy
7:49 PM 68.0 °F 64.4 °F 88% 29.95 in 7.0 mi East 3.5 mph - N/A   Mostly Cloudy
8:51 PM 68.0 °F 64.4 °F 88% 29.99 in 7.0 mi Calm Calm - N/A   Mostly Cloudy
9:43 PM 68.0 °F 64.4 °F 88% 29.97 in 7.0 mi Calm Calm - N/A   Mostly Cloudy
10:45 PM 69.8 °F 64.4 °F 83% 29.97 in 6.0 mi ENE 5.8 mph - N/A   Overcast
11:44 PM 68.0 °F 64.4 °F 88% 29.93 in 5.0 mi Calm Calm - N/A   Overcast